SXM-9

Last updated on Sun Jun 21 2026 00:03:09 GMT+0000 (Coordinated Universal Time)

1 62259U 24234A 26170.80467911 -.00000211 00000+0 00000+0 0 9994 2 62259 0.0121 345.5677 0005044 330.3730 156.5984 1.00271752 5603
UTC large
Height (km)
Speed (km/s)
/
Latitude / Longitude
Inclination (degrees)
Orbital Period (minutes)
Azimuth
Elevation
Range (km)
Doppler Factor

Next 0 passes for location: London (51.5072 / 0.1276)

No passes found over London.
SXM-9